SL-16 DEB, 22454

Orbit data source: Space-Track

SL-16 DEB, 22454 is space debris in LEO originally from a launch on Fri, 25 Dec 1992 UTC launched from the Tyuratam Missile And Space Complex (TTMTR). Debris objects in space refer to the collection of defunct objects orbiting the Earth. Examples of debris include non-operational satellites, rocket bodies, and fragments generated from explosions, collisions, or faulty payload assembly.

Loading next visibility...
Identifier
22454, 1992-093ET
Orbit
LEO
Country
Flag of CISCIS
Related business
Manufacturer
Unknown
Mission
Spacecraft
Bus & Motor
Unknown
Mass
Unknown
Launch date (UTC)
1992-12-25 (33 years ago)
Launch vehicle
Unknown
Launch site
Tyuratam Missile And Space Complex (TTMTR)
Object type
Payload
Rocket body
Debris
Shape & HBR
Unknown shape, 0.1 m
Radar Cross Section
Small (<0.1 m²)

Expand to show TLE details & history
Last TLE update: 15 hours ago

TLE from 15 hours ago
0 SL-16 DEB
1 22454U 92093ET  26036.85413707  .00000491  00000-0  34885-3 0  9997
2 22454  70.9186 316.1508 0104477   2.6312 357.5329 13.99914365686599
Epoch: 2026-02-05T20:29Z
TLE epoch observation values (Epoch: 2026-02-05T20:29:57.442Z)
Latitude
-0.00001°
Longitude
-127.33894°
Altitude
820.553 km
Speed
7.482 km/s
True Right ascension
21h 04m 36s
True Declination
0° 00' 00"
Sunlit
Object was in daylight at epoch
Visualization orbit readout
Latitude
Unknown
Longitude
Unknown
Altitude
Unknown
Speed
Unknown
Apparent Right ascension
Unknown
Apparent Declination
Unknown
Sunlit
N/A
Visualization observer readout
Local Sidereal Time
13:56:10
Azimuth
Unknown
Elevation
Unknown
Doppler factor
Unknown
Orbital elements
Apogee altitude
967.996 km
Perigee altitude
816.082 km
Semi-major axis
7,270.176 km
Eccentricity
0.01045
Inclination
70.9186°
RAAN
316.1508°
Arg. of periapsis
2.6312°
True anomaly
357.48068°
Mean anomaly
357.5329°
Eccentric anomaly
357.50686°
Mean motion
3.50127 °/min
Orbital period
102.82 mins
BSTAR
0.00034885
Loading maneuver chart data...
Computing Atmospheric mass density...
Loading historical data...
Loading historical data...
Loading historical data...
Loading historical data...
Loading historical data...
Loading historical data...
Loading historical data...

Documentation

Showing up to 5 results
|